When you browse on this site, cookies collect data to enhance your experience and personalize the content and advertising you see.
Visit our Privacy Policy to learn more. By continuing to use the site, you agree to this use of cookies and data.
  • In France
  • List of Countries
  • For 7 days
  • Water Temperature
  • Satellite Maps
  • Weather Map
  • Weather Widgets
  • user-avatar
    Login

    Hourly Weather Stepanakert

    Today, 16 February, Saturday

    Time Temperature Precipitation Wind Pressure Humidity
    00:00 +4°C° 0.8 mm 1 mps 690 mmHg 95%
    01:00 +4°C° 1 mm 1 mps 690 mmHg 95%
    02:00 +4°C° 1 mm 1 mps 690 mmHg 95%
    03:00 +3°C° 1 mm 1 mps 690 mmHg 95%
    04:00 +3°C° 0.8 mm 1 mps 690 mmHg 95%
    05:00 +3°C° 0.8 mm 1 mps 690 mmHg 95%
    06:00 +3°C° 0.8 mm 1 mps 690 mmHg 95%
    07:00 +3°C° 0.5 mm 1 mps 690 mmHg 92%
    08:00 +4°C° 0.5 mm 1 mps 690 mmHg 90%
    09:00 +4°C° 0.5 mm 1 mps 691 mmHg 87%
    10:00 +5°C° 0.2 mm 1 mps 690 mmHg 85%
    11:00 +5°C° 0.2 mm 1 mps 690 mmHg 83%
    12:00 +6°C° 0.2 mm 1 mps 690 mmHg 81%
    13:00 +6°C° 0.1 mm 1 mps 690 mmHg 81%
    14:00 +6°C° 0.1 mm 1 mps 690 mmHg 81%
    15:00 +6°C° 0.1 mm 1 mps 689 mmHg 81%
    16:00 +6°C° 0 mm 1 mps 690 mmHg 83%
    17:00 +5°C° 0 mm 1 mps 690 mmHg 84%
    18:00 +4°C° 0 mm 1 mps 690 mmHg 86%
    19:00 +4°C° 0 mm 1 mps 690 mmHg 83%
    20:00 +4°C° 0 mm 1 mps 690 mmHg 80%
    21:00 +4°C° 0 mm 1 mps 690 mmHg 77%
    22:00 +4°C° 0 mm 1 mps 690 mmHg 74%
    23:00 +4°C° 0 mm 1 mps 690 mmHg 71%

    Tomorrow, 17 February, Sunday

    Time Temperature Precipitation Wind Pressure Humidity
    00:00 +4°C° 0 mm 1 mps 690 mmHg 68%
    01:00 +4°C° 0 mm 1 mps 690 mmHg 69%
    02:00 +3°C° 0 mm 1 mps 690 mmHg 70%
    03:00 +3°C° 0 mm 1 mps 690 mmHg 71%
    04:00 +3°C° 0 mm 1 mps 690 mmHg 72%
    05:00 +3°C° 0 mm 1 mps 690 mmHg 73%
    06:00 +2°C° 0 mm 1 mps 690 mmHg 74%
    07:00 +3°C° 0 mm 1 mps 691 mmHg 71%
    08:00 +4°C° 0 mm 1 mps 691 mmHg 68%
    09:00 +5°C° 0 mm 1 mps 692 mmHg 65%
    10:00 +6°C° 0 mm 1 mps 692 mmHg 65%
    11:00 +5°C° 0 mm 2 mps 692 mmHg 65%
    12:00 +6°C° 0 mm 2 mps 692 mmHg 65%
    13:00 +6°C° 0 mm 2 mps 691 mmHg 65%
    14:00 +6°C° 0 mm 2 mps 691 mmHg 66%
    15:00 +6°C° 0 mm 2 mps 691 mmHg 66%
    16:00 +6°C° 0 mm 1 mps 691 mmHg 68%
    17:00 +5°C° 0 mm 1 mps 691 mmHg 69%
    18:00 +5°C° 0 mm 1 mps 691 mmHg 71%
    19:00 +4°C° 0 mm 1 mps 691 mmHg 71%
    20:00 +4°C° 0 mm 1 mps 691 mmHg 70%
    21:00 +4°C° 0 mm 1 mps 692 mmHg 70%
    22:00 +4°C° 0 mm 1 mps 692 mmHg 67%
    23:00 +4°C° 0 mm 1 mps 692 mmHg 65%

    Day after tomorrow, 18 February, Monday

    Time Temperature Precipitation Wind Pressure Humidity
    00:00 +4°C° 0 mm 1 mps 692 mmHg 62%
    01:00 +3°C° 0 mm 1 mps 691 mmHg 61%
    02:00 +3°C° 0 mm 1 mps 691 mmHg 59%
    03:00 +3°C° 0 mm 1 mps 691 mmHg 58%
    04:00 +3°C° 0 mm 1 mps 690 mmHg 57%
    05:00 +3°C° 0 mm 1 mps 690 mmHg 56%
    06:00 +2°C° 0 mm 1 mps 690 mmHg 55%
    07:00 +4°C° 0 mm 1 mps 690 mmHg 54%
    08:00 +5°C° 0 mm 1 mps 690 mmHg 53%
    09:00 +6°C° 0 mm 1 mps 690 mmHg 52%
    10:00 +7°C° 0 mm 1 mps 690 mmHg 53%
    11:00 +8°C° 0 mm 1 mps 689 mmHg 53%
    12:00 +9°C° 0 mm 1 mps 689 mmHg 54%
    13:00 +8°C° 0 mm 2 mps 688 mmHg 53%
    14:00 +8°C° 0 mm 2 mps 687 mmHg 51%
    15:00 +9°C° 0 mm 2 mps 687 mmHg 50%
    16:00 +8°C° 0 mm 1 mps 687 mmHg 53%
    17:00 +7°C° 0 mm 1 mps 687 mmHg 55%
    18:00 +6°C° 0 mm 1 mps 686 mmHg 58%
    19:00 +6°C° 0 mm 1 mps 687 mmHg 58%
    20:00 +5°C° 0 mm 1 mps 687 mmHg 58%
    21:00 +5°C° 0 mm 1 mps 687 mmHg 59%
    22:00 +4°C° 0 mm 1 mps 687 mmHg 59%
    23:00 +4°C° 0 mm 1 mps 687 mmHg 59%

    19 February, Tuesday

    Time Temperature Precipitation Wind Pressure Humidity
    00:00 +4°C° 0 mm 1 mps 687 mmHg 59%
    01:00 +4°C° 0 mm 1 mps 687 mmHg 60%
    02:00 +3°C° 0 mm 1 mps 687 mmHg 61%
    03:00 +3°C° 0 mm 1 mps 688 mmHg 63%
    04:00 +3°C° 0 mm 1 mps 688 mmHg 64%
    05:00 +3°C° 0 mm 1 mps 688 mmHg 65%
    06:00 +3°C° 0 mm 1 mps 689 mmHg 66%
    07:00 +4°C° 0 mm 1 mps 689 mmHg 66%
    08:00 +4°C° 0 mm 1 mps 690 mmHg 65%
    09:00 +5°C° 0 mm 1 mps 690 mmHg 65%
    10:00 +4°C° 0 mm 2 mps 691 mmHg 66%
    11:00 +5°C° 0 mm 2 mps 691 mmHg 67%
    12:00 +4°C° 0 mm 3 mps 691 mmHg 69%
    13:00 +3°C° 0.3 mm 3 mps 692 mmHg 73%
    14:00 +3°C° 0.3 mm 3 mps 692 mmHg 78%
    15:00 +2°C° 0.3 mm 3 mps 692 mmHg 83%
    16:00 +2°C° 0.1 mm 2 mps 692 mmHg 85%
    17:00 +1°C° 0.1 mm 2 mps 693 mmHg 87%
    18:00 +1°C° 0.1 mm 2 mps 694 mmHg 88%
    19:00 -1°C° 0.1 mm 2 mps 695 mmHg 89%
    20:00 -1°C° 0.1 mm 2 mps 696 mmHg 89%
    21:00 +1°C° 0.1 mm 1 mps 696 mmHg 89%
    22:00 0°C° 0.1 mm 1 mps 697 mmHg 90%
    23:00 0°C° 0.1 mm 1 mps 697 mmHg 90%

    20 February, Wednesday

    Time Temperature Precipitation Wind Pressure Humidity
    00:00 0°C° 0.1 mm 1 mps 698 mmHg 90%
    01:00 0°C° 0 mm 1 mps 698 mmHg 90%
    02:00 0°C° 0 mm 1 mps 698 mmHg 89%
    03:00 -2°C° 0 mm 0 mps 698 mmHg 89%
    04:00 -2°C° 0 mm 0 mps 699 mmHg 88%
    05:00 -2°C° 0 mm 0 mps 699 mmHg 87%
    06:00 -1°C° 0 mm 1 mps 699 mmHg 86%
    07:00 0°C° 0 mm 1 mps 699 mmHg 82%
    08:00 +1°C° 0 mm 1 mps 700 mmHg 78%
    09:00 +1°C° 0 mm 2 mps 700 mmHg 74%
    10:00 +2°C° 0 mm 2 mps 700 mmHg 72%
    11:00 +3°C° 0 mm 2 mps 699 mmHg 70%
    12:00 +4°C° 0 mm 2 mps 699 mmHg 68%
    13:00 +4°C° 0 mm 2 mps 699 mmHg 69%
    14:00 +4°C° 0 mm 2 mps 698 mmHg 69%
    15:00 +4°C° 0 mm 2 mps 698 mmHg 69%
    16:00 +4°C° 0 mm 2 mps 698 mmHg 73%
    17:00 +3°C° 0 mm 2 mps 698 mmHg 78%
    18:00 +3°C° 0 mm 1 mps 698 mmHg 83%
    19:00 +3°C° 0 mm 1 mps 698 mmHg 83%
    20:00 +2°C° 0 mm 1 mps 698 mmHg 84%
    21:00 +2°C° 0 mm 1 mps 698 mmHg 84%
    22:00 +1°C° 0 mm 0 mps 697 mmHg 83%
    23:00 +1°C° 0 mm 0 mps 697 mmHg 82%

    21 February, Thursday

    Time Temperature Precipitation Wind Pressure Humidity
    00:00 +1°C° 0 mm 0 mps 697 mmHg 81%
    01:00 0°C° 0 mm 0 mps 696 mmHg 78%
    02:00 0°C° 0 mm 0 mps 696 mmHg 75%
    03:00 0°C° 0 mm 0 mps 696 mmHg 72%
    04:00 0°C° 0 mm 0 mps 696 mmHg 70%
    05:00 0°C° 0 mm 0 mps 695 mmHg 68%
    06:00 0°C° 0 mm 0 mps 695 mmHg 65%
    07:00 +1°C° 0 mm 0 mps 695 mmHg 61%
    08:00 +3°C° 0 mm 0 mps 696 mmHg 57%
    09:00 +5°C° 0 mm 1 mps 696 mmHg 53%
    10:00 +6°C° 0 mm 1 mps 695 mmHg 53%
    11:00 +6°C° 0 mm 2 mps 695 mmHg 53%
    12:00 +6°C° 0 mm 2 mps 695 mmHg 54%
    13:00 +7°C° 0 mm 2 mps 694 mmHg 55%
    14:00 +7°C° 0 mm 2 mps 694 mmHg 57%
    15:00 +7°C° 0 mm 2 mps 693 mmHg 58%
    16:00 +6°C° 0 mm 2 mps 693 mmHg 64%
    17:00 +6°C° 0 mm 1 mps 693 mmHg 70%
    18:00 +5°C° 0 mm 1 mps 693 mmHg 76%
    19:00 +4°C° 0 mm 1 mps 693 mmHg 75%
    20:00 +4°C° 0 mm 1 mps 694 mmHg 75%
    21:00 +4°C° 0 mm 1 mps 694 mmHg 74%
    22:00 +4°C° 0 mm 1 mps 694 mmHg 71%
    23:00 +4°C° 0 mm 1 mps 694 mmHg 68%
    Show more